Regional Weather Roundup
Issued by NWS Bismarck, ND

Home | Current Version | Previous Version | Text Only | Print | Product List | Glossary On
Versions: 1 2 3 4 5 6 7 8 9 10 11 12 13 14 15 16 17 18 19 20 21 22 23 24 25 26 27 28 29 30 31 32 33 34 35 36 37 38 39 40 41 42 43 44 45 46 47 48 49 50
000
ASUS43 KBIS 291310
RWRBIS

NWR BROADCAST TEXT
NATIONAL WEATHER SERVICE BISMARCK ND
800 AM CDT FRI JUL 29 2016

NOTE: "FAIR" INDICATES FEW OR NO CLOUDS BELOW 12,000 FEET WITH NO
SIGNIFICANT WEATHER AND/OR OBSTRUCTIONS TO VISIBILITY.


CITY           SKY/WX    TMP DP  RH WIND       PRES   REMARKS
WILLISTON      SUNNY     58  54  86 CALM      30.10S
MINOT          MOSUNNY   61  55  81 CALM      30.09F
MINOT AFB      SUNNY     58  54  86 CALM      30.09S
BISMARCK       MOSUNNY   64  59  83 CALM      30.10R
DICKINSON      PTSUNNY   60  58  92 CALM      30.11R
GARRISON         N/A     62  61  96 CALM      30.10R
HETTINGER ARPT PTSUNNY   55  54  96 CALM      30.13S FOG
JAMESTOWN      PTSUNNY   63  59  87 CALM      30.10S
BEACH          FOG       59  59 100 S8        30.15R VSB 3/4
CARRINGTON     CLOUDY    61  59  94 CALM      30.13S
HAZEN          PTSUNNY   57  57 100 CALM      30.13R
LINTON         PTSUNNY   66  66 100 E3        30.11S
MANDAN         FAIR      64  61  88 MISG      30.11R
OAKES            N/A    N/A N/A N/A MISG        N/A
STANLEY        FAIR      57  57 100 CALM      30.14S
WATFORD CITY     N/A    N/A N/A N/A MISG        N/A
$$

CITY           SKY/WX    TMP DP  RH WIND       PRES   REMARKS
GRAND FORKS    MOSUNNY   62  57  83 NW3       30.09R
GRAND FORKS AF SUNNY     61  56  84 N2        30.10R
DEVILS LAKE    SUNNY     62  59  90 CALM      30.12R
FARGO          SUNNY     63  57  81 N3        30.08S
CAVALIER       FAIR      59  55  88 W3        30.10S
GRAFTON        FAIR      61  59  94 CALM      30.12R
GWINNER        PTSUNNY   63  59  88 NW3       30.10S
LANGDON        FAIR      59  59 100 CALM      30.13S
ROLLA          FAIR      59  59 100 SW5       30.13S
$$

CITY           SKY/WX    TMP DP  RH WIND       PRES   REMARKS
ABERDEEN       MOSUNNY   66  60  81 SE3       30.09S
MOBRIDGE       CLOUDY    69  60  73 E3        30.06S
BUFFALO          N/A     60  59  96 SE7       30.06S
RAPID CITY     SUNNY     58  57  97 CALM      30.12F
GLASGOW        MOSUNNY   61  56  83 E8        30.06S
SIDNEY         FOG       55  54  96 N3        30.10R VSB 1/4
WOLF POINT     MOSUNNY   58  55  90 E3        30.09S
GLENDIVE       PTSUNNY   59  58  96 NE5       30.10S
MILES CITY     SUNNY     63  58  83 NE3       30.07S
BAKER          CLOUDY    60  59  96 SE8       30.12S
$$

CITY           SKY/WX    TMP DP  RH WIND       PRES   REMARKS
BILLINGS       PTCLDY    61  52  72 SW6       30.10R
GREAT FALLS    CLEAR     58  54  86 SW9       30.14F
REGINA         PTSUNNY   57  50  77 SE8       30.06S
ESTEVAN        MOSUNNY   59  55  88 CALM      30.09S
$$





USA.gov is the U.S. government's official web portal to all federal, state and local government web resources and services.